Location: *
(50.8512°N, 5.6907°E)
Time: 17:59:26
(UTC+00:00)

STARLINK-1192 - Pass Details

Date: 09 April 2020
Orbit: 549 x 550 km, 53.0° (Epoch: 25 May)

Event Time Altitude Azimuth Distance (km) Brightness Sun altitude
Rises 19:35:18 0° 289° (WNW) 2,731 9.2 -11.4°
Reaches altitude 10° 19:37:32 10° 288° (WNW) 1,836 7.8 -11.7°
Maximum altitude 19:41:42 79° 203° (SSW) 568 3.6 -12.3°
Enters shadow 19:44:32 20° 117° (ESE) 1,309 4.9 -12.6°
